COSMOS 2251 DEB, 35061

Orbit data source: Space-Track

COSMOS 2251 DEB, 35061 is space debris in LEO originally from a launch on Wed, 16 Jun 1993 UTC launched from the Plesetsk Missile And Space Complex (PKMTR). The debris from Iridium 33, an American commercial communications satellite, has been tracked extensively since its accidental collision with the defunct Russian satellite Cosmos 2251 in 2009. This event, occurring at high speed in low Earth orbit (LEO), generated thousands of pieces of space debris, significantly increasing the risk of further collisions. The Iridium 33 debris cloud has impacted space traffic management and orbital debris mitigation strategies, making it a subject of ongoing study in space situational awareness.

Loading next visibility...
Identifier
35061, 1993-036AHQ
Orbit
LEO
Country
Flag of CISCIS
Related business
Manufacturer
Unknown
Mission
Spacecraft
Bus & Motor
Unknown
Mass
Unknown
Launch date (UTC)
1993-06-16 (33 years ago)
Launch vehicle
Unknown
Launch site
Plesetsk Missile And Space Complex (PKMTR)
Object type
Payload
Rocket body
Debris
Shape & HBR
Unknown shape, 0.1 m
Radar Cross Section
Medium (>0.1 m² and <1 m²)

Expand to show TLE details & history
Last TLE update: 1 day ago

TLE from 1 day ago
0 COSMOS 2251 DEB
1 35061U 93036AHQ 26262.30163505  .00001675  00000-0  28361-3 0  9999
2 35061  74.0425 122.9832 0040342 164.1465 196.0980 14.69632605926941
Epoch: 2026-09-19T07:14Z
TLE epoch observation values (Epoch: 2026-09-19T07:14:21.268Z)
Latitude
0.00002°
Longitude
16.18246°
Altitude
692.195 km
Speed
7.496 km/s
True Right ascension
08h 11m 55s
True Declination
0° 00' 00"
Sunlit
Object was in daylight at epoch
Visualization orbit readout
Latitude
Unknown
Longitude
Unknown
Altitude
Unknown
Speed
Unknown
Apparent Right ascension
Unknown
Apparent Declination
Unknown
Sunlit
N/A
Visualization observer readout
Local Sidereal Time
09:48:35
Azimuth
Unknown
Elevation
Unknown
Doppler factor
Unknown
Orbital elements
Apogee altitude
688.22 km
Perigee altitude
631.435 km
Semi-major axis
7,037.965 km
Eccentricity
0.00403
Inclination
74.0425°
RAAN
122.9832°
Arg. of periapsis
164.1465°
True anomaly
195.97044°
Mean anomaly
196.098°
Eccentric anomaly
196.03416°
Mean motion
3.67598 °/min
Orbital period
97.93 mins
BSTAR
0.00028361
Loading maneuver chart data...
Computing Atmospheric mass density...

Documentation

Showing up to 5 results
|